Regional Weather Roundup
Issued by NWS

Home | Current Version | Previous Version | Text Only | Print | Product List | Glossary On
Versions: 1 2 3 4 5 6 7 8 9 10 11 12 13 14 15 16 17 18 19 20 21 22 23 24 25 26 27 28 29 30 31 32 33 34 35 36 37 38 39 40 41 42 43 44 45 46 47 48 49 50
739
ASUS46 KSTO 140015
RWRCA

NORTHERN AND CENTRAL CA REGIONAL WEATHER ROUNDUP
NATIONAL WEATHER SERVICE SACRAMENTO CA
400 PM PST WED DEC 13 2017

NOTE: FAIR INDICATES FEW OR NO CLOUDS BELOW 12,000 FEET WITH NO
SIGNIFICANT WEATHER AND/OR OBSTRUCTIONS TO VISIBILITY.

CAZ001-003-140100-
NORTHWEST AREA

CITY           SKY/WX    TMP DP  RH WIND       PRES   REMARKS
CRESCENT CITY  CLEAR     55  47  74 N3        30.15F
UKIAH          PTCLDY    59  38  45 CALM      30.08S
$$

CAZ006-505>513-140100-
BAY AREA

CITY           SKY/WX    TMP DP  RH WIND       PRES   REMARKS
SANTA ROSA     PTCLDY    60  39  45 S3        30.06F
SAN RAFAEL     N/A       56  MM  MM MISG
NAPA           CLEAR     56  42  59 SW3       30.08S
CONCORD        CLEAR     60  41  49 N5        30.08F
OAKLAND CITY   N/A      MM  MM  MM MISG
OAKLAND        PTCLDY    56  46  69 NW9       30.08S
SAN FRAN CITY  N/A       59  MM  38 MISG
SAN FRAN ARPT  PTCLDY    58  44  60 CALM      30.07S
LIVERMORE      CLEAR     59  36  42 E6        30.07S
HAYWARD        CLEAR     58  42  55 CALM      30.07S
REDWOOD CITY   N/A       60  MM  62 MISG
MOFFETT ARPT   CLEAR     61  42  49 N3        30.08S
SAN JOSE ARPT  PTCLDY    63  35  35 NW8       30.07S
$$
CAZ034-037-514>518-140100-
CENTRAL COAST

CITY           SKY/WX    TMP DP  RH WIND       PRES   REMARKS
WATSONVILLE    CLEAR     64  37  36 SW3       30.03S
SALINAS        PTCLDY    63  43  48 W15       30.01S
MONTEREY       CLEAR     61  40  45 E3        30.03F
SAN LUIS OBISP CLEAR     72  34  24 W14       29.94F
SANTA MARIA    CLEAR     76  26  15 W8        29.94F
$$
CAZ015-016-140100-
NORTHERN SACRAMENTO VALLEY

CITY           SKY/WX    TMP DP  RH WIND       PRES   REMARKS
REDDING        PTCLDY    61  34  36 CALM      30.06S
RED BLUFF      PTCLDY    61  33  35 CALM      30.06F
OROVILLE       PTCLDY    56  40  55 CALM      30.08F
$$
CAZ016>018-140100-
SOUTHERN SACRAMENTO VALLEY

CITY           SKY/WX    TMP DP  RH WIND       PRES   REMARKS
AUBURN         PTCLDY    57  39  51 CALM      30.08S
BEALE AFB      CLEAR     57  39  50 CALM      30.06S
LINCOLN        FAIR      57  34  41 CALM      30.07S
MARYSVILLE     PTCLDY    59  39  47 CALM      30.08S
SAC INTL ARPT  PTCLDY    58  40  51 NE3       30.08S
MATHER AIRPORT PTCLDY    59  39  47 NW5       30.07F
DOWNTOWN SAC   N/A       59  MM  MM MISG
SAC EXEC ARPT  CLEAR     60  38  43 CALM      30.08F
VACAVILLE      CLEAR     61  36  39 CALM      30.08F
TRAVIS AFB     CLEAR     59  35  41 SW6       30.06F
$$
CAZ019>021-140100-
SAN JOAQUIN VALLEY

CITY           SKY/WX    TMP DP  RH WIND       PRES   REMARKS
STOCKTON       CLEAR     58  42  55 W6        30.08S
MODESTO        CLEAR     58  41  53 NW7       30.08S HAZE
MERCED         CLEAR     59  40  49 NW5       30.08R HAZE
LEMOORE        MOCLDY    59  34  39 CALM      30.08S HAZE
FRESNO         MOCLDY    59  36  42 VRB3      30.07F HAZE
HANFORD        PTCLDY    59  39  47 CALM      30.08S HAZE
PORTERVILLE    PTCLDY    61  36  39 NW7       30.08R HAZE
BAKERSFIELD    CLEAR     62  33  33 W5        30.06S HAZE
$$
CAZ011-012-071-140100-
NORTHERN MOUNTAINS

CITY           SKY/WX    TMP DP  RH WIND       PRES   REMARKS
YREKA          CLEAR     43  26  51 SW3       30.28S
MOUNT SHASTA   CLEAR     46  21  37 W7        30.22R
ALTURAS        CLEAR     48  21  34 CALM      30.26R
$$
CAZ011-012-071-140100-
SIERRA NEVADA MTNS

CITY           SKY/WX    TMP DP  RH WIND       PRES   REMARKS
BLUE CANYON    PTCLDY    66  -1   7 N3        30.20S
TRUCKEE        PTCLDY    45  25  45 CALM      30.26S
TAHOE VLY ARPT CLEAR     37  29  72 CALM      30.27F
MAMMOTH LAKES  FAIR      46  -6  11 CALM      30.25S
$$




USA.gov is the U.S. government's official web portal to all federal, state and local government web resources and services.